Location: ActonStarParty
(42.4766°N, 71.4538°W)
Time: 10:02:10
(UTC-04:00)

ISS - Visible Passes

Search period start: 28 March 2017 00:00
Search period end: 07 April 2017 00:00
Orbit: 399 x 409 km, 51.6° (Epoch: 28 March)

Date Brightness Start Highest point End Pass type
(mag) Time Alt. Az. Time Alt. Az. Time Alt. Az.
28 Mar -2.6 19:33:53 10° SSW 19:36:34 24° SE 19:39:16 10° E visible
28 Mar -2.7 21:09:45 10° WSW 21:12:44 43° NW 21:12:44 43° NW visible
29 Mar -3.7 20:17:14 10° WSW 20:20:28 76° NNW 20:23:10 14° NE visible
29 Mar -0.7 21:54:49 10° WNW 21:55:51 15° NW 21:55:51 15° NW visible
30 Mar -1.8 21:01:57 10° W 21:04:47 26° NNW 21:06:03 20° NNE visible
31 Mar -2.4 20:09:11 10° W 20:12:15 37° NNW 20:15:21 10° NE visible
31 Mar -0.9 21:47:09 10° NW 21:48:44 16° NNW 21:48:44 16° NNW visible
01 Apr -1.4 20:54:17 10° WNW 20:56:44 19° NNW 20:58:37 13° NNE visible
02 Apr -1.7 20:01:23 10° WNW 20:04:06 24° NNW 20:06:51 10° NE visible
02 Apr -1.1 21:39:13 10° NW 21:41:03 16° N 21:41:03 16° N visible
03 Apr -1.2 20:46:30 10° NW 20:48:42 17° N 20:50:46 11° NE visible
03 Apr -0.2 22:23:20 10° NW 22:23:25 10° NW 22:23:25 10° NW visible
04 Apr -1.4 19:53:38 10° WNW 19:56:00 18° N 19:58:22 10° NE visible
04 Apr -1.4 21:30:57 10° NW 21:33:03 18° N 21:33:03 18° N visible
05 Apr -1.4 20:38:25 10° NW 20:40:38 17° N 20:42:40 11° NE visible
05 Apr -0.5 22:14:46 10° NW 22:15:19 14° NW 22:15:19 14° NW visible
06 Apr -1.3 19:45:44 10° NW 19:47:53 16° N 19:50:04 10° NE visible
06 Apr -1.9 21:22:25 10° NW 21:24:54 24° N 21:24:54 24° N visible
